Zurück zum Katalog

STARLINK-34201

AktivKommunikationVLEO
NORAD 64077·PAYLOAD·🇺🇸 United States

Gestartet May 21, 2025 von Cape Canaveral Space Force Station

Loading…

Nächste Überflüge (nächste 24 Stunden)

TLE

AktuellSource: CelesTrak SupGP

Epoche: Sep 14, 2026, 21:11 UTC

1 64077C 25107P   26257.88312500  .00031184  00000+0  11293-2 0  2579
2 64077  42.9997 213.3692 0001495 261.3940  33.7849 15.27567198    12

Verfolge STARLINK-34201 in Echtzeit mit AllMySat

Download on the App Store